003  
ASUS41 KLWX 241211  
RWRLWX  
 
REGIONAL WEATHER ROUNDUP  
NATIONAL WEATHER SERVICE BALTIMORE MD/WASHINGTON DC  
700 AM EST SAT FEB 24 2018  
 
NOTE: "FAIR" INDICATES FEW OR NO CLOUDS BELOW 12,000 FEET  
WITH NO SIGNIFICANT WEATHER AND/OR S TO VISIBILITY
.  
TC=TEMPERATURE CELSIUS  
 
* =NON NWS SITE. STATION DOES NOT REPORT PRECIPITATION (E.G. RAIN,  
SNOW, ETC.), THUNDER, OR FOG.
 
 
DCZ001-MDZ009-015-VAZ040>042-051-053>054-241300-  
WASHINGTON METRO  
 
CITY SKY/WX TMP DP RH WIND PRES REMARKS
 
WASHINGTON NAT FOG 50 50 100 E5 30.15S VSB 1/8  
DULLES FOG 48 48 100 CALM 30.15S VSB 1/2  
ANDREWS AFB FOG 48 48 100 E3 30.15R VSB 1/8  
FT BELVOIR FOG 49 48 99 CALM 30.15F VSB 1/8  
QUANTICO FOG 50 50 100 E6 30.15F VSB 3/4  
COLLEGE PARK* CLOUDY 47 47 99 CALM 30.15S VSB 1/4  
LEESBURG* FOG 43 43 100 CALM 30.15R VSB 3/4  
MANASSAS* FOG 49 48 97 CALM 30.15S VSB 1/4  
GAITHERSBURG* FOG 46 46 100 SE6 30.15F VSB 1/4  
 

 
 
MDZ006>007-011-014-241300-  
BALTIMORE METRO  
 
CITY SKY/WX TMP DP RH WIND PRES REMARKS
 
BWI AIRPORT FOG 45 45 100 E5 30.16S VSB<1/4  
MD SCIENCE CTR N/A 48 47 96 MISG 30.16F  
MARTIN STATE FOG 46 46 100 CALM 30.19F VSB 1/8  
ANNAPOLIS FOG 47 47 100 CALM 30.16F VSB 1/4  
FORT MEADE* CLOUDY 45 45 100 CALM 30.18F VSB 1/2  
 

 
 
MDZ012-015-019>023-241300-  
MARYLAND EASTERN SHORE  
 
CITY SKY/WX TMP DP RH WIND PRES REMARKS
 
OCEAN CITY FOG 44 44 100 S3 30.20S VSB 1/2  
SALISBURY FOG 49 49 100 E3 30.18F VSB 1/4  
BAY BRIDGE AP* FOG 45 45 100 CALM 30.17F VSB<1/4  
CAMBRIDGE* FOG 48 48 100 SE6 30.18R VSB 1/4  
EASTON* FOG 50 48 93 CALM 30.21S VSB 1/2  
 

 
 
MDZ017>025-241300-  
SOUTHERN MARYLAND  
 
CITY SKY/WX TMP DP RH WIND PRES REMARKS
 
PATUXENT RIVER FOG 45 45 100 SE5 30.17S VSB 1/2  
ST INIGOES FOG 49 49 100 CALM 30.15F VSB 1/2  
LEONARDTOWN* CLOUDY 50 48 93 CALM 30.18R VSB 1/4  
 

 
 
MDZ003>005-241300-  
NORTH CENTRAL MARYLAND  
 
CITY SKY/WX TMP DP RH WIND PRES REMARKS
 
FREDERICK* FOG 46 46 100 CALM 30.18S VSB 1/4  
HAGERSTOWN APT CLOUDY 45 44 97 N6 30.14S FOG  
WESTMINSTER* FOG 45 45 100 CALM 30.14F VSB 1  
 

 
 
MDZ501>502-241300-  
WESTERN MARYLAND  
 
CITY SKY/WX TMP DP RH WIND PRES REMARKS
 
OAKLAND* CLOUDY 52 52 100 CALM 30.13S VSB 1/4  
CUMBERLAND* CLOUDY 45 45 100 CALM 30.18S  
 

 
 
VAZ025>031-241300-  
SHENANDOAH VALLEY  
 
CITY SKY/WX TMP DP RH WIND PRES REMARKS
 
WINCHESTER* CLOUDY 41 41 100 CALM 30.15R FOG  
FRONT ROYAL* CLOUDY 41 41 100 CALM 30.13R  
LURAY* CLOUDY 50 48 93 SE5 30.12S  
NEW MARKET* CLOUDY 46 46 97 CALM 30.12F  
STAUNTON* MOCLDY 48 48 97 CALM 30.15S  
WAYNESBORO* FAIR 51 51 99 CALM 30.14S  
 

 
 
WVZ021-048>050-054>055-241300-  
EASTERN WEST VIRGINIA PANHANDLE  
 
CITY SKY/WX TMP DP RH WIND PRES REMARKS
 
MARTINSBURG FOG 43 43 100 CALM 30.14R VSB 1/2  
PETERSBURG* CLOUDY 44 43 99 CALM 30.13F FOG  
 

 
 
VAZ036>039-050-241300-  
CENTRAL FOOTHILLS  
 
CITY SKY/WX TMP DP RH WIND PRES REMARKS
 
CHARLOTTESVILL FOG 49 48 97 CALM 30.13R VSB 1/2  
CULPEPER* FOG 50 48 94 CALM 30.15S VSB 1/4  
ORANGE* CLOUDY 50 50 100 CALM 30.14R FOG  
GORDONSVILLE* FOG 51 51 100 SW5 30.13R VSB 1  
WARRENTON* FOG 50 48 91 CALM 30.14R VSB<1/4  
 

 
 
VAZ055>057-241300-  
NORTH AND CENTRAL PIEDMONT  
 
CITY SKY/WX TMP DP RH WIND PRES REMARKS
 
FREDERICKSBRG* CLOUDY 49 49 100 CALM 30.14F FOG  
STAFFORD* CLOUDY 51 51 100 E3 30.18F FOG  
 

 
 
NCZ024-NYZ072-PAZ021-071-VAZ022-071-241300-  
OTHER REGIONAL OBSERVATIONS  
 
CITY SKY/WX TMP DP RH WIND PRES REMARKS
 
NEW YORK CITY FAIR 45 41 86 MISG 30.20R  
PHILADELPHIA CLOUDY 44 43 96 S3 30.19F FOG  
PITTSBURGH LGT RAIN 47 43 86 NW6 30.20R  
ROANOKE MOCLDY 47 46 97 CALM 30.18F  
RICHMOND FOG 53 53 100 S6 30.16F VSB 1/2  
RALEIGH CLOUDY 60 60 100 SW9 30.22S FOG  
 

 
 
ANZ530>537-241300-  
MARINE OBSERVATIONS  
 
STATION/POSITION TIME TEMP WIND PRES
 
AIR SEA DIR/SP/G  
(UTC) (F) (DEG/KT/KT) (MB)  
THOMAS PT LIGHT 1200 44 42 CALM N/A  
BALT KEY BRIDGE 1148 45 60/ 5/ 5 1021.2F  
COVE POINT 1148 44 170/ 8/ 9 1022.2F  
LEWISETTA 1148 48 49 130/ 4/ 5 1021.4F  
SOLOMONS ISLAND 1148 45 43 120/ 3/ 4 1021.4S  
PINEY POINT 1148 130/ 4/ 4 N/A  
 

 
 
 
 
CLICK HERE TO GO TO PREVIOUS BULLETINS.

The Nexlab VA Page
The Nexlab MD Page
The Nexlab WV Page Main Text Page